Accueil
METAR-TAF:

METAR-TAF

Aéroports :

Troyes, France

Aéroport de Troyes - Barberey

latitude: 48-20N, longitude: 004-01E, altitude: 118 m

Observation

Le bulletin a été fait il y a 22 minutes, à 08:00 UTC
Vent 3 kt de ouest, variant entre sud/sud-ouest et nord-ouest
Température 3°C
Humidité 93%
Pression 1026 hPa
Visibilité: 3700 m
Ciel couvert à une hauteur de 300 ft
brume

METAR: LFQB 180800Z AUTO 28003KT 200V310 3700 BR OVC003 03/02 Q1026

Heure: 09:22 (08:22 UTC)


TAF: absent

Observations et prévisions météorologiques de plus de 4000 aéroports (messages METAR et TAF).

Les stations disponibles sont représentées par des disques jaunes et rouges sur la carte.

Passer la souris dessus pour voir le nom de la station.

Cliquer dessus pour voir les observations et prévisions météorologiques.

Pour changer de carte: cliquez sur les boutons verts avec une croix noire pour zoomer, sur le bouton vert avec un tiret pour effectuer un zoom arrière, ou sur les flèches vertes pour les cartes adjacentes.


METAR-TAF: